weather.gov     
National Weather Service

Terminal Aerodrome Forecast
NWS Homepage
This page is being discontinued on March 12, 2014.
The same data is available at this site. Please update your bookmarks.
Thank you, and we apologize for the inconvenience.
Please send an email to SR-SRH.Webmaster@noaa.gov with any concerns.


Current Version
Previous Version:    01  02  03  04  05  06  07  08  09  10  11  12  13  14  
[Printable]
402
FTUS41 KBOX 021410 AAA
TAFBOS
TAF AMD
KBOS 021410Z 0214/0318 23007KT P6SM FEW050
     FM021600 22009KT P6SM SCT050
     FM021800 22011KT P6SM BKN050
     FM030000 22010KT P6SM SCT250
     FM030500 27009KT P6SM BKN250
     FM031200 28010G19KT P6SM FEW250=




402
FTUS41 KBOX 021410 AAA
TAFBOS
TAF AMD
KBOS 021410Z 0214/0318 23007KT P6SM FEW050
     FM021600 22009KT P6SM SCT050
     FM021800 22011KT P6SM BKN050
     FM030000 22010KT P6SM SCT250
     FM030500 27009KT P6SM BKN250
     FM031200 28010G19KT P6SM FEW250=


U.S. Dept. of Commerce
NOAA National Weather Service
1325 East West Highway
Silver Spring, MD 20910
E-mail: w-nws.webmaster@noaa.gov
Page last modified: May 16, 2007
NATIONAL WEATHER SERVICE: for Safety, for Work, for Fun - FOR LIFE